Regional Weather Roundup
Issued by NWS

Home | Current Version | Previous Version | Text Only | Print | Product List | Glossary Off
Versions: 1 2 3 4 5 6 7 8 9 10 11 12 13 14 15 16 17 18 19 20 21 22 23 24 25 26 27 28 29 30 31 32 33 34 35 36 37 38 39 40 41 42 43 44 45 46 47 48 49 50

000
ASUS43 KMPX 230101
RWRMN
WEATHER ROUNDUP FOR MINNESOTA
NATIONAL WEATHER SERVICE TWIN CITIES/CHANHASSEN MN
700 PM CST SUN JAN 22 2017


NOTE: "FAIR" INDICATES FEW OR NO CLOUDS BELOW 12,000 FEET WITH NO
SIGNIFICANT WEATHER AND/OR OBSTRUCTIONS TO VISIBILITY. N/A MEANS
CURRENT SKY AND/OR WEATHER CONDITIONS ARE NOT AVAILABLE.

MNZ060>063-068>070-230200-
   Twin Cities Metro

CITY           SKY/WX    TMP DP  RH WIND       PRES   REMARKS
TWIN CITIES    CLOUDY    37  34  89 W6        29.76S
ST PAUL        CLOUDY    38  37  97 NW9       29.77R
CRYSTAL        CLOUDY    37  33  85 NW7       29.75R
BLAINE         CLOUDY    39  39 100 W3        29.76R FOG
LAKEVILLE      CLOUDY    34  34 100 W5        29.76R FOG     WCI  30
EDEN PRAIRIE   CLOUDY    36  34  92 NW8       29.75S FOG
SOUTH ST PAUL  CLOUDY    38  37  94 W3        29.75S
LAKE ELMO      CLOUDY    37  36  93 W5        29.75S
$$
MNZ001>005-007-008-013>017-022>024-027-028-230200-
   Northwest Minnesota

CITY           SKY/WX    TMP DP  RH WIND       PRES   REMARKS
BEMIDJI        CLOUDY    33  33 100 W5        29.73S FOG     WCI  28
HALLOCK        CLOUDY    34  32  93 CALM      29.74S FOG
ROSEAU         HAZE      36  30  80 CALM      29.74R VSB 1/4
WARROAD        FOG       34  28  80 SE3       29.74R VSB 1/2
THIEF RVR FALL LGT SNOW  31  30  96 W6        29.76R FOG     WCI  25
CROOKSTON      CLOUDY    32  30  93 W5        29.77S WCI  27
FOSSTON        FOG       30  30 100 W5        29.76R VSB 1/4 WCI  25
DETROIT LAKES  CLOUDY    32  32 100 W3        29.77R FOG
MOORHEAD       CLOUDY    30  30 100 NW8       29.79S FOG     WCI  23
PARK RAPIDS    FOG       33  30  88 W8        29.74R VSB 1/2 WCI  26
MAHNOMEN       FOG       31  31 100 W7        29.76R VSB 3/4 WCI  24
$$
MNZ006-009>011-018-025>026-230200-
   North Central Minnesota

CITY           SKY/WX    TMP DP  RH WIND       PRES   REMARKS
BAUDETTE       CLOUDY    34  33  96 CALM      29.72S FOG
FLAG ISLAND    FOG       34  32  93 SE3       29.72S VSB 1
INTL FALLS     FOG       34  32  92 CALM      29.72S VSB 1
WASKISH        FOG       34  34 100 W3        29.73S VSB 1/2
LONGVILLE      CLOUDY    36  34  93 CALM      29.73R FOG
GRAND RAPIDS   FOG       35  34  96 NW3       29.74R VSB 1/2
CRANE LAKE     CLOUDY    34  32  93 CALM      29.74S
ORR            LGT SNOW  32  30  93 CALM      29.70S
COOK           MIX PCPN  34  32  93 CALM      29.72S
WALKER         CLOUDY    34  34 100 NW3       29.73R FOG
$$
MNZ012-019>021-037-230200-
   Northeast Minnesota

CITY           SKY/WX    TMP DP  RH WIND       PRES   REMARKS
DULUTH         CLOUDY    35  34  96 NW5       29.70S WCI  31
ELY            FOG       34  34 100 W3        29.71R VSB 1/4
HIBBING        FOG       33  33 100 CALM      29.71S VSB 1
EVELETH        CLOUDY    35  34  96 NW3       29.72S
DULUTH HARBOR  CLOUDY    36  34  93 CALM      29.73F
TWO HARBORS    CLOUDY    39  34  81 CALM      29.70R
SILVER BAY     FOG       36  36 100 CALM      29.69S VSB 1/4
GRAND MARAIS     N/A     36  34  92 W3        29.71R
G MARAIS ARPRT CLOUDY    30  28  93 CALM      29.68R FOG
$$
MNZ029>031-032-039>041-046>048-054>057-064-230200-
   West Central Minnesota

CITY           SKY/WX    TMP DP  RH WIND       PRES   REMARKS
FERGUS FALLS   CLOUDY    30  30 100 W5        29.82R FOG     WCI  25
WHEATON        CLOUDY    39  39 100 W7        29.82S FOG
MORRIS         MOCLDY    34  32  93 W7        29.79R FOG     WCI  28
ALEXANDRIA     CLOUDY    31  31 100 NW8       29.77R FOG     WCI  23
ELBOW LAKE     CLOUDY    31  31 100 NW6       29.78S FOG     WCI  25
WADENA         CLOUDY    30  30 100 W6        29.75S FOG     WCI  24
GLENWOOD       CLOUDY    30  30 100 W9        29.78R FOG     WCI  22
APPLETON       CLOUDY    34  30  86 W9        29.81R WCI  26
ORTONVILLE     CLOUDY    34  28  80 CALM      29.80S
MADISON        CLOUDY    36  34  93 NW7       29.82R
WILLMAR        CLOUDY    34  34 100 CALM      29.80R FOG
$$
MNZ033>034-036-042>043-049>051-058-059-230200-
   Central Minnesota

CITY           SKY/WX    TMP DP  RH WIND       PRES   REMARKS
ST CLOUD       CLOUDY    34  34 100 W10       29.76R WCI  26
SAUK CENTRE    CLOUDY    32  32 100 W5        29.77R FOG     WCI  27
PAYNESVILLE    FOG       32  32 100 W6        29.78R VSB 1   WCI  26
AITKIN         CLOUDY    37  34  87 CALM      29.72R
PINE RIVER     CLOUDY    36  36 100 CALM      29.77R
BRAINERD       CLOUDY    34  34 100 W6        29.74R FOG     WCI  29
STAPLES        FOG       32  32 100 W6        29.75S VSB 3/4 WCI  26
LONG PRAIRIE   FOG       32  32 100 W6        29.76S VSB 1   WCI  26
LITTLE FALLS   CLOUDY    34  32  93 NW5       29.76S FOG     WCI  30
LITCHFIELD     FOG       34  34 100 W6        29.78S VSB 1   WCI  29
BUFFALO        CLOUDY    34  32  94 W6        29.78S FOG     WCI  29
MAPLE LAKE     CLOUDY    35  34  98 W5        29.77S FOG     WCI  30
HUTCHINSON     CLOUDY    33  33 100 W13       29.79R FOG     WCI  24
$$
MNZ037-044-045-052-053-230200-
   East Central Minnesota

CITY           SKY/WX    TMP DP  RH WIND       PRES   REMARKS
PRINCETON      CLOUDY    37  36  93 W5        29.76R FOG
MORA           CLOUDY    36  34  93 CALM      29.75S
CAMBRIDGE      CLOUDY    37  37 100 CALM      29.74R
RUSH CITY      CLOUDY    36  34  93 CALM      29.74S
MOOSE LAKE     CLOUDY    36  34  93 NW3       29.71S
HINCKLEY       CLOUDY    36  36 100 W5        29.74R FOG
CLOQUET        CLOUDY    36  34  93 NW5       29.71S FOG
MCGREGOR       CLOUDY    36  34  93 CALM      29.73S
$$
MNZ071>073-080-081-089-090-097-098-230200-
   Southwest Minnesota

CITY           SKY/WX    TMP DP  RH WIND       PRES   REMARKS
MONTEVIDEO     CLOUDY    34  34 100 NW7       29.82S WCI  28
GRANITE FALLS  CLOUDY    34  32  92 W10       29.83R WCI  26
CANBY          CLOUDY    33  31  92 NW5G10    29.83R WCI  28
MARSHALL       CLOUDY    31  29  92 NW18      29.82R WCI  19
REDWOOD FALLS  CLOUDY    33  29  85 NW8       29.80R FOG     WCI  26
OLIVIA         CLOUDY    32  32 100 NW6       29.79S FOG     WCI  26
PIPESTONE      CLOUDY    30  28  93 NW14G21   29.81R WCI  20
WINDOM         CLOUDY    30  30 100 NW10      29.81R FOG     WCI  21
WORTHINGTON    CLOUDY    29  28  96 NW15      29.82R FOG     WCI  18
JACKSON        CLOUDY    32  32 100 NW12      29.80R FOG     WCI  23
TRACY          CLOUDY    32  31  98 NW10      29.81S FOG     WCI  24
SLAYTON        CLOUDY    29  29  99 NW16      29.80S FOG     WCI  17
$$
MNZ065>067-074>077-082>085-091>093-230200-
   South Central Minnesota

CITY           SKY/WX    TMP DP  RH WIND       PRES   REMARKS
MANKATO        CLOUDY    33  33 100 NW9       29.79R FOG     WCI  25
NEW ULM        CLOUDY    32  32 100 NW12      29.80R FOG     WCI  23
ST JAMES       CLOUDY    32  32 100 W14       29.81R WCI  22
FAIRMONT       CLOUDY    34  33  96 NW9       29.81R WCI  27
GLENCOE        CLOUDY    34  34 100 W10       29.77S FOG     WCI  26
OWATONNA       CLOUDY    36  34  93 W8        29.77R FOG
WASECA         CLOUDY    34  34 100 NW8       29.79R FOG     WCI  27
ALBERT LEA     CLOUDY    36  36 100 NW5       29.77R FOG
$$
MNZ078>079-086>088-094>096-230200-
   Southeast Minnesota

CITY           SKY/WX    TMP DP  RH WIND       PRES   REMARKS
ROCHESTER      CLOUDY    34  34 100 NW7       29.75R FOG     WCI  28
RED WING       CLOUDY    36  34  93 CALM      29.75S FOG
STANTON        CLOUDY    37  34  91 W7        29.75S
DODGE CENTER   FOG       34  34 100 CALM      29.75R VSB 1
WINONA         CLOUDY    36  36 100 CALM      29.76R FOG
AUSTIN         FOG       36  34  93 W7        29.76R VSB 1
PRESTON        CLOUDY    33  32  96 NW8       29.75S FOG     WCI  26
$$
ABBREVIATIONS USED IN REMARKS
   TC - TEMPERATURES IN CELSIUS
  WCI - WIND CHILL INDEX
   HX - HEAT INDEX
  VSB - VISIBILITY
$$




USA.gov is the U.S. government's official web portal to all federal, state and local government web resources and services.